Location: Hermaringen
(48.5952°N, 10.2585°E)
Time: 02:15:42
(UTC+00:00)

Cosmos 1400 Rocket - Pass Details

Date: 18 November 2025
Orbit: 477 x 514 km, 81.1° (Epoch: 04 December)

Event Time Altitude Azimuth Distance (km) Brightness Sun altitude
Rises 17:02:58 0° 170° (S) 2,618 6.3 -14.2°
Reaches altitude 10° 17:05:13 10° 161° (SSE) 1,733 5.3 -14.6°
Maximum altitude 17:08:42 35° 95° (E) 833 3.2 -15.1°
Enters shadow 17:09:57 28° 55° (NE) 992 3.6 -15.3°
